Погода в Навле

Россия / Орловская область     52°55′55″N   35°09′37″E
темп.,
°C
ветер,
м/с
пор.,
м/с
влажн.,
%
обл.,
%
осадки,
мм/ч
давл.,
гПа
погр.,
м
28 ноября, вс
вс2800:00+5ююз6149573 0.1 1001466
03:00+6юз61083100 0.1 1002636
06:00+2юз379611 0.0 1004191
09:00+1юз39945 0.0 1006215
12:00+3юз477882 0.0 1007297
15:00+4ююз247876 0.0 1008163
18:00+2ююв3484100 0.0 100861
21:00+3юв41196100 0.0 1007230
29 ноября, пн
пн2900:00+3юв51396100 0.0 1006296
03:00+3юв51296100 0.0 1005271
06:00+3юв499799 0.0 1003191
09:00+4вюв4998100 0.1 1001187
12:00+5вюв4999100 0.4 998248
15:00+5вюв4699100 1.9 995181
18:00+6юв41099100 0.0 992301
21:00+6в4899100 2.0 986174
30 ноября, вт
вт3000:00+6всв4898100 5.1 979292
03:00+5зсз4699100 9.3 976218
06:00+5з5998100 1.2 976398
09:000зюз132096100 4.0 982966
12:00+1зюз121992100 3.5 9861105
15:00+1юз101788100 3.6 9871215
18:000юз9158599 0.1 9881091
21:00−2зюз9149393 0.3 989983
1 декабря, ср
ср100:00−2зюз91488100 0.3 9901020
03:00−3з91494100 1.1 992992
06:00−2з81383100 0.5 9941057
09:00−3з81287100 0.6 995979
12:00−3з7118498 0.1 9971003
15:00−2з6108091 0.1 998917
18:00−4з410915 0.0 999333
21:00−5з410945 0.0 1001326
2 декабря, чт
чт200:00−6юз369621 0.0 1002141
03:00−5ююз41093100 0.0 1002276
06:00−2ю61494100 0.1 999495
09:000ююз81598100 1.4 997759
12:00+1юз81698100 0.8 998661
15:00+2юз71597100 0.8 999626
18:00+3юз81387100 0.0 1001686
21:00+2юз7169268 0.0 1002481